Simultaneous Nadir Overpasses (SNOs) Predictions

Prediction of SNOs between GOES-17 and NOAA-20 Satellite Orbit:

Table of predicted SNOs for the next 14.0 days since TLE Epoch: 6/25/2022
Index Date Time (GOES-17) GOES-17 Lat,Lon NOAA-20 Lat,Lon Distance(km) Time Diff (sec)
1 06/25/2022 10:24:58 0.03,-137.20 -0.36,-135.31 214.04 80
2 06/26/2022 22:49:34 -0.03,-137.20 -0.79,-140.62 390.23 80
3 06/27/2022 22:28:08 -0.02,-137.20 0.21,-136.09 125.95 80
4 06/29/2022 10:52:36 0.02,-137.19 0.93,-141.36 474.86 80
5 06/30/2022 10:31:10 0.02,-137.19 -0.06,-136.83 40.94 80
6 07/02/2022 22:37:00 -0.02,-137.17 -0.14,-137.59 48.84 80
7 07/03/2022 22:15:36 -0.02,-137.16 0.92,-133.07 466.83 80
8 07/05/2022 10:40:02 0.02,-137.15 0.29,-138.33 134.92 80
9 07/06/2022 10:18:36 0.02,-137.14 -0.71,-133.79 380.33 80
10 07/07/2022 22:43:12 -0.02,-137.11 -0.48,-139.10 226.19 80
11 07/08/2022 22:21:46 -0.01,-137.10 0.52,-134.56 288.52 80
